Change the Weather History Date:

Tuesday, February 11, 2014

  Actual Average Record
Temperature  
Mean Temperature 16 °F -  
Max Temperature 21 °F 37 °F 76 °F (1951)
Min Temperature 10 °F 16 °F -18 °F (1981)
Degree Days  
Heating Degree Days 50    
Moisture  
Dew Point 8 °F    
Average Humidity 76    
Maximum Humidity 86    
Minimum Humidity 63    
Precipitation  
Precipitation 0.00 in - - ()
Sea Level Pressure  
Sea Level Pressure 30.21 in    
Wind  
Wind Speed 11 mph (South)    
Max Wind Speed 20 mph    
Max Gust Speed 29 mph    
Visibility 10 miles    
Events Snow    
Averages and records for this station are not official NWS values.
T = Trace of Precipitation, MM = Missing Value Source: NWS Daily Summary

Daily Weather History Graph

Daily Weather History Graph

Search for Another Location

Airport or City:

Trip Planner

Search our weather history database for the weather conditions in past years. The results will help you decide how hot, cold, wet, or windy it might be!

Date:

Astronomy

Feb. 11, 2014 Rise Set
Actual Time 7:29 AM CST 6:00 PM CST
Civil Twilight 7:01 AM CST 6:28 PM CST
Nautical Twilight 6:29 AM CST 7:00 PM CST
Astronomical Twilight 5:57 AM CST 7:32 PM CST
Moon 3:21 PM CST (2/11) 5:08 AM CST (2/11)
Length of Visible Light 11h 27m
Length of Day
10h 30m
Waxing Gibbous, 91% of the Moon is Illuminated
Feb 11
Waxing Gibbous
Feb 14
Full
Feb 22
Last Quarter
Mar 1
New
Mar 8
First Quarter

Hourly Weather History & Observations

Time (CST) Temp. Windchill Dew Point Humidity Pressure Visibility Wind Dir Wind Speed Gust Speed Precip Events Conditions
12:15 AM 10.4 °F 0.8 °F 3.2 °F 73% 30.37 in 10.0 mi SE 5.8 mph - N/A Snow Light Snow
12:35 AM 10.4 °F 4.0 °F 3.2 °F 73% 30.38 in 9.0 mi SE 3.5 mph - N/A Snow Light Snow
12:55 AM 10.4 °F - 3.2 °F 73% 30.39 in 10.0 mi Calm Calm - N/A Snow Light Snow
1:15 AM 10.4 °F 4.0 °F 5.0 °F 79% 30.38 in 10.0 mi South 3.5 mph - N/A   Overcast
1:35 AM 10.4 °F 4.0 °F 5.0 °F 79% 30.37 in 10.0 mi South 3.5 mph - N/A   Overcast
1:55 AM 10.4 °F -0.4 °F 5.0 °F 79% 30.37 in 10.0 mi South 6.9 mph - N/A   Overcast
2:15 AM 10.4 °F -0.4 °F 5.0 °F 79% 30.37 in 10.0 mi South 6.9 mph - N/A   Overcast
2:35 AM 10.4 °F -2.4 °F 5.0 °F 79% 30.37 in 10.0 mi South 9.2 mph - N/A   Overcast
2:55 AM 10.4 °F -1.5 °F 5.0 °F 79% 30.37 in 10.0 mi South 8.1 mph - N/A   Overcast
3:15 AM 10.4 °F -2.4 °F 5.0 °F 79% 30.36 in 5.0 mi South 9.2 mph - N/A Snow Light Snow
3:35 AM 10.4 °F -0.4 °F 5.0 °F 79% 30.36 in 10.0 mi South 6.9 mph - N/A   Overcast
3:55 AM 10.4 °F 0.8 °F 5.0 °F 79% 30.36 in 10.0 mi South 5.8 mph - N/A Snow Light Snow
4:15 AM 10.4 °F -0.4 °F 5.0 °F 79% 30.35 in 10.0 mi South 6.9 mph - N/A   Overcast
4:35 AM 10.4 °F -2.4 °F 5.0 °F 79% 30.34 in 7.0 mi South 9.2 mph - N/A Snow Light Snow
4:55 AM 10.4 °F -3.3 °F 5.0 °F 79% 30.34 in 10.0 mi South 10.4 mph - N/A   Overcast
5:15 AM 10.4 °F -2.4 °F 5.0 °F 79% 30.34 in 10.0 mi South 9.2 mph - N/A   Overcast
5:35 AM 10.4 °F -3.3 °F 5.0 °F 79% 30.34 in 10.0 mi South 10.4 mph - N/A   Overcast
5:55 AM 10.4 °F -3.3 °F 5.0 °F 79% 30.33 in 10.0 mi South 10.4 mph - N/A   Overcast
6:15 AM 10.4 °F -4.1 °F 5.0 °F 79% 30.33 in 10.0 mi South 11.5 mph - N/A   Overcast
6:35 AM 10.4 °F -5.4 °F 5.0 °F 79% 30.32 in 10.0 mi South 13.8 mph - N/A   Overcast
6:55 AM 10.4 °F -4.1 °F 5.0 °F 79% 30.32 in 10.0 mi South 11.5 mph - N/A   Overcast
7:15 AM 10.4 °F -4.1 °F 5.0 °F 79% 30.32 in 10.0 mi South 11.5 mph - N/A   Overcast
7:35 AM 10.4 °F -4.1 °F 5.0 °F 79% 30.31 in 10.0 mi South 11.5 mph - N/A   Overcast
7:55 AM 12.2 °F -2.5 °F 5.0 °F 73% 30.31 in 10.0 mi South 12.7 mph - N/A   Overcast
8:15 AM 12.2 °F -3.1 °F 5.0 °F 73% 30.31 in 10.0 mi South 13.8 mph - N/A   Overcast
8:35 AM 12.2 °F -1.8 °F 5.0 °F 73% 30.31 in 10.0 mi South 11.5 mph - N/A   Overcast
8:55 AM 12.2 °F -3.7 °F 6.8 °F 79% 30.30 in 10.0 mi South 15.0 mph - N/A   Overcast
9:15 AM 12.2 °F -2.5 °F 6.8 °F 79% 30.30 in 10.0 mi South 12.7 mph - N/A   Overcast
9:35 AM 14.0 °F -0.8 °F 6.8 °F 73% 30.29 in 10.0 mi South 13.8 mph - N/A   Overcast
9:55 AM 14.0 °F -1.4 °F 6.8 °F 73% 30.29 in 10.0 mi South 15.0 mph - N/A   Overcast
10:15 AM 14.0 °F -1.4 °F 6.8 °F 73% 30.28 in 10.0 mi South 15.0 mph - N/A   Overcast
10:35 AM 14.0 °F -2.5 °F 6.8 °F 73% 30.28 in 10.0 mi South 17.3 mph - N/A   Overcast
10:55 AM 14.0 °F -2.5 °F 6.8 °F 73% 30.28 in 10.0 mi South 17.3 mph - N/A   Overcast
11:15 AM 15.8 °F 1.4 °F 6.8 °F 68% 30.28 in 10.0 mi South 13.8 mph 19.6 mph N/A   Overcast
11:35 AM 15.8 °F 0.3 °F 6.8 °F 68% 30.28 in 10.0 mi South 16.1 mph - N/A   Overcast
11:55 AM 15.8 °F 0.3 °F 6.8 °F 68% 30.27 in 10.0 mi South 16.1 mph - N/A   Overcast
12:15 PM 15.8 °F 0.3 °F 6.8 °F 68% 30.25 in 10.0 mi South 16.1 mph - N/A   Overcast
12:35 PM 17.6 °F 2.2 °F 6.8 °F 63% 30.24 in 10.0 mi South 17.3 mph - N/A   Overcast
12:55 PM 17.6 °F 2.7 °F 8.6 °F 68% 30.22 in 10.0 mi South 16.1 mph 24.2 mph N/A   Overcast
1:15 PM 17.6 °F 2.2 °F 8.6 °F 68% 30.20 in 10.0 mi South 17.3 mph 21.9 mph N/A   Overcast
1:35 PM 17.6 °F 1.7 °F 10.4 °F 73% 30.19 in 10.0 mi South 18.4 mph - N/A   Overcast
1:55 PM 19.4 °F 3.6 °F 10.4 °F 68% 30.17 in 10.0 mi South 19.6 mph 23.0 mph N/A   Overcast
2:15 PM 19.4 °F 5.0 °F 10.4 °F 68% 30.15 in 10.0 mi South 16.1 mph 21.9 mph N/A   Overcast
2:35 PM 19.4 °F 4.1 °F 10.4 °F 68% 30.14 in 10.0 mi South 18.4 mph 21.9 mph N/A   Overcast
2:55 PM 19.4 °F 4.5 °F 10.4 °F 68% 30.12 in 10.0 mi South 17.3 mph 21.9 mph N/A   Overcast
3:15 PM 19.4 °F 5.0 °F 10.4 °F 68% 30.11 in 10.0 mi South 16.1 mph 27.6 mph N/A   Overcast
3:35 PM 19.4 °F 4.1 °F 10.4 °F 68% 30.11 in 10.0 mi South 18.4 mph - N/A   Overcast
3:55 PM 19.4 °F 3.6 °F 12.2 °F 74% 30.10 in 10.0 mi South 19.6 mph - N/A   Overcast
4:15 PM 19.4 °F 4.1 °F 12.2 °F 74% 30.10 in 10.0 mi South 18.4 mph 21.9 mph N/A   Overcast
4:35 PM 19.4 °F 5.0 °F 14.0 °F 80% 30.10 in 10.0 mi South 16.1 mph - N/A   Mostly Cloudy
4:55 PM 21.2 °F 8.3 °F 14.0 °F 74% 30.09 in 10.0 mi South 13.8 mph - N/A   Partly Cloudy
5:15 PM 21.2 °F 7.3 °F 14.0 °F 74% 30.07 in 10.0 mi South 16.1 mph - N/A   Clear
5:35 PM 19.4 °F 4.1 °F 14.0 °F 80% 30.06 in 10.0 mi South 18.4 mph 24.2 mph N/A   Clear
5:55 PM 19.4 °F 5.5 °F 14.0 °F 80% 30.07 in 10.0 mi South 15.0 mph - N/A   Clear
6:15 PM 17.6 °F 3.7 °F 14.0 °F 86% 30.08 in 10.0 mi South 13.8 mph 17.3 mph N/A   Clear
6:35 PM 17.6 °F 3.7 °F 12.2 °F 79% 30.07 in 10.0 mi South 13.8 mph - N/A   Clear
6:55 PM 17.6 °F 3.7 °F 12.2 °F 79% 30.07 in 10.0 mi South 13.8 mph - N/A   Clear
7:15 PM 17.6 °F 3.2 °F 10.4 °F 73% 30.06 in 10.0 mi South 15.0 mph - N/A   Clear
7:35 PM 17.6 °F 3.2 °F 10.4 °F 73% 30.06 in 10.0 mi South 15.0 mph - N/A   Clear
7:55 PM 15.8 °F -0.2 °F 10.4 °F 79% 30.04 in 10.0 mi South 17.3 mph 21.9 mph N/A   Clear
8:15 PM 15.8 °F 0.9 °F 10.4 °F 79% 30.05 in 10.0 mi South 15.0 mph 23.0 mph N/A   Clear
8:35 PM 15.8 °F 0.9 °F 10.4 °F 79% 30.05 in 10.0 mi South 15.0 mph 20.7 mph N/A   Clear
8:55 PM 15.8 °F 0.3 °F 10.4 °F 79% 30.05 in 10.0 mi South 16.1 mph - N/A   Clear
9:15 PM 15.8 °F 1.4 °F 10.4 °F 79% 30.05 in 10.0 mi South 13.8 mph - N/A   Clear
9:35 PM 17.6 °F 2.7 °F 10.4 °F 73% 30.05 in 10.0 mi South 16.1 mph - N/A   Scattered Clouds
9:55 PM 17.6 °F 2.2 °F 10.4 °F 73% 30.04 in 10.0 mi South 17.3 mph - N/A   Overcast
10:15 PM 17.6 °F 2.2 °F 10.4 °F 73% 30.03 in 10.0 mi South 17.3 mph 25.3 mph N/A   Overcast
10:35 PM 17.6 °F 1.7 °F 12.2 °F 79% 30.04 in 10.0 mi SSW 18.4 mph 24.2 mph N/A   Overcast
10:55 PM 17.6 °F 2.2 °F 12.2 °F 79% 30.02 in 10.0 mi South 17.3 mph 28.8 mph N/A   Overcast
11:15 PM 17.6 °F 3.2 °F 14.0 °F 86% 30.03 in 10.0 mi SSW 15.0 mph - N/A   Overcast
11:35 PM 17.6 °F 1.7 °F 14.0 °F 86% 30.01 in 10.0 mi South 18.4 mph 23.0 mph N/A   Overcast
11:55 PM 19.4 °F 4.5 °F 14.0 °F 80% 30.01 in 10.0 mi SSW 17.3 mph 25.3 mph N/A   Overcast